[[{"header":{"parameterUnit":"m.s-1","parameterCategory":1,"la1":30.2991,"la2":30.254,"lo1":-89.0895,"lo2":-89.0444,"dy":0.0017,"dx":0.0017,"nx":28,"ny":28,"refTime":"2025-03-27T09:00:00:Z","depth":0,"parameterNumber":2,"parameterNumberName":"U-component_of_WINDS"},"data":[0,0,0,0,0,0,0,0,0,0,0,0,0,0,0,0,0,0,0,0,0,0,0,0,0,0,0,0,0,0,0,0,0,0,0,0,0,0,0,0,0,0,0,0,0,0,0,0,0,0,0,0,0,0,0,0,0,0,-4.4085,-4.4084,0,-4.4027,-4.4026,-4.4026,-4.3899,-4.3897,-4.3894,-4.3892,-4.3836,-4.3837,-4.3838,0,0,0,0,0,0,0,0,0,0,0,0,0,-4.4089,-4.409,-4.4085,-4.4084,-4.4083,-4.4027,-4.4026,-4.4026,-4.39,-4.3897,-4.3893,-4.389,-4.3836,-4.3837,-4.3838,0,0,0,0,0,0,0,0,0,0,0,0,0,-4.4065,-4.409,-4.4085,-4.4014,-4.4007,-4.4027,-4.4026,-4.4025,-4.39,-4.3896,-4.3893,-4.3889,-4.3835,-4.3837,-4.3838,-4.3925,0,0,-4.3842,-4.3843,0,0,0,0,0,0,0,0,-4.4067,-4.4065,-4.4025,-4.4019,-4.4011,-4.3966,-4.4007,-4.3992,-4.3901,-4.3941,-4.3892,-4.3887,-4.3883,-4.388,-4.3878,-4.3922,-4.392,-4.3843,-4.3843,-4.3844,-4.3844,0,0,0,0,0,0,0,-4.4069,-4.4067,-4.4062,-4.4025,-4.4016,-4.3986,-4.3978,-4.4004,-4.3935,-4.3937,-4.3928,-4.3923,-4.3878,-4.3877,-4.3876,-4.3919,-4.3843,-4.3844,-4.3845,-4.3845,-4.403,-4.4034,0,0,0,0,0,0,-4.408,-4.4069,-4.4064,-4.406,-4.403,-4.3989,-4.398,-4.3985,-4.3934,-4.3922,-4.3926,-4.3917,-4.3876,-4.3874,-4.3873,-4.3969,-4.3844,-4.3845,-4.3846,-4.4026,-4.4031,-4.4035,0,0,0,0,0,0,-4.4081,-4.4081,-4.4066,-4.4062,-4.4058,-4.3993,-4.3999,-4.3986,-4.3984,-4.3925,-4.3913,-4.3937,-4.3873,-4.3871,-4.3912,-4.3966,-4.3846,-4.3847,-4.4021,-4.4027,-4.4033,-4.4164,0,0,0,0,0,0,-4.4081,-4.4082,-4.4113,-4.4064,-4.4059,-4.4106,-4.4002,-4.3987,-4.3986,-4.3974,-4.3932,-4.3922,-4.387,-4.3911,-4.3914,-4.3966,-4.3848,-4.4016,-4.4024,-4.4031,-4.4155,-4.4174,-4.419,0,0,0,0,0,-4.4082,-4.4153,-4.4115,-4.4115,-4.4096,-4.4109,-4.4106,-4.4044,-4.3991,-4.4022,-4.3985,-4.3923,-4.396,-4.3916,-4.3918,-4.3971,-4.4012,-4.4022,-4.403,-4.4147,-4.417,-4.419,0,0,0,0,0,0,-4.4212,-4.4146,-4.4103,-4.416,-4.4141,-4.4087,-4.4125,-4.4071,-4.4068,-4.4056,-4.3981,-4.3973,-4.4024,-4.4002,-4.3954,-4.4052,-4.3976,-4.3986,-4.4064,-4.4086,-4.4103,-4.4107,-4.385,0,0,0,0,0,-4.4247,-4.4262,-4.4203,-4.426,-4.4252,-4.4191,-4.4194,-4.4148,-4.4125,-4.4117,-4.4082,-4.4064,-4.4071,-4.4078,-4.4081,-4.4152,-4.414,-4.4189,-4.4207,-4.4222,-4.4231,-4.4266,-4.4287,-4.4065,-4.4065,-4.4065,0,0,-4.432,-4.4286,-4.43,-4.4285,-4.4265,-4.4282,-4.4185,-4.4208,-4.422,-4.4121,-4.4156,-4.4131,-4.4105,-4.4161,-4.4184,-4.4145,-4.429,-4.4234,-4.4246,-4.4247,-4.4277,-4.4298,-4.4317,-4.4071,-4.407,-4.4069,0,0,-4.4461,-4.4438,-4.4481,-4.4462,-4.4433,-4.4391,-4.4402,-4.4357,-4.4335,-4.437,-4.4295,-4.431,-4.4325,-4.4309,-4.4303,-4.4439,-4.4382,-4.4443,-4.4536,-4.457,-4.4588,-4.4603,-4.465,-4.4668,-4.4453,-4.4453,-4.4453,0,-4.4556,-4.4578,-4.451,-4.4537,-4.4533,-4.4444,-4.4487,-4.4473,-4.4447,-4.4446,-4.4403,-4.4418,-4.4395,-4.4445,-4.4478,-4.4477,-4.4487,-4.4446,-4.4591,-4.4605,-4.4618,-4.4662,-4.468,-4.446,-4.446,-4.4459,-4.4458,0,-4.4695,-4.4712,-4.4751,-4.4726,-4.4726,-4.4762,-4.4701,-4.4709,-4.4664,-4.4628,-4.4664,-4.4633,-4.4628,-4.4637,-4.4594,-4.4682,-4.4658,-4.4604,-4.4526,-4.4648,-4.4688,-4.4704,-4.4471,-4.4468,-4.4466,-4.4464,0,0,-4.4915,-4.4852,-4.4868,-4.4855,-4.4816,-4.4828,-4.486,-4.4854,-4.4862,-4.4848,-4.4873,-4.4887,-4.4836,-4.483,-4.4784,-4.4815,-4.4923,-4.4756,-4.4755,-4.4787,-4.5017,-4.5056,-4.5077,-4.4886,-4.4889,-4.4891,-4.5018,0,-4.5046,-4.5095,-4.5035,-4.5097,-4.5112,-4.5028,-4.5055,-4.5035,-4.5003,-4.5011,-4.4975,-4.4986,-4.4919,-4.4914,-4.4941,-4.4905,-4.4968,-4.4895,-4.4908,-4.4909,-4.4914,-4.5098,-4.514,-4.5261,-4.5034,-4.5036,-4.5038,0,-4.5204,-4.5195,-4.5259,-4.5215,-4.5219,-4.5245,-4.5234,-4.5243,-4.5219,-4.5193,-4.5186,-4.5131,-4.516,-4.5086,-4.5125,-4.5076,-4.5078,-4.5062,-4.5065,-4.5062,-4.498,-4.5098,-4.5298,-4.5316,-4.5063,-4.5061,-4.5059,0,-4.5356,-4.5361,-4.5398,-4.5391,-4.5341,-4.5361,-4.5342,-4.5313,-4.5313,-4.5305,-4.5304,-4.5301,-4.5298,-4.5297,-4.5242,-4.5194,-4.5288,-4.5209,-4.5267,-4.5268,-4.5288,-4.5287,-4.5489,-4.5294,-4.5294,-4.5293,-4.5293,0,-4.5507,-4.5548,-4.5466,-4.5489,-4.5533,-4.5466,-4.5512,-4.5484,-4.546,-4.5476,-4.5405,-4.5423,-4.535,-4.5361,-4.5319,-4.5356,-4.5357,-4.5336,-4.5324,-4.5341,-4.5344,-4.534,-4.533,-4.5298,-4.5297,-4.5296,-4.5295,0,-4.5683,-4.5629,-4.5664,-4.5615,-4.5603,-4.5638,-4.5596,-4.5616,-4.5579,-4.5601,-4.5603,-4.5545,-4.5553,-4.5499,-4.5499,-4.547,-4.5528,-4.5503,-4.5535,-4.5527,-4.5586,-4.5581,-4.5791,-4.5815,-4.5607,-4.5609,-4.5611,0,-4.5781,-4.5811,-4.5764,-4.5769,-4.5753,-4.5764,-4.5763,-4.5698,-4.5701,-4.5675,-4.5698,-4.5701,-4.5698,-4.5716,-4.5675,-4.5674,-4.5646,-4.5721,-4.5646,-4.5662,-4.5645,-4.5643,-4.5645,-4.5735,-4.5738,-4.574,-4.5742,0,-4.5961,-4.5933,-4.5934,-4.5927,-4.5928,-4.5919,-4.5905,-4.5915,-4.5844,-4.5851,-4.5858,-4.5856,-4.5855,-4.5858,-4.5848,-4.5829,-4.5774,-4.5766,-4.5779,-4.5796,-4.5813,-4.5802,-4.5576,-4.5761,-4.5759,-4.5758,-4.5757,-4.5756,-4.6099,-4.6122,-4.6092,-4.6095,-4.6078,-4.6068,-4.6083,-4.6048,-4.6052,-4.6045,-4.6007,-4.6021,-4.5996,-4.5977,-4.5964,-4.5974,-4.5939,-4.5958,-4.5962,-4.5968,-4.5977,-4.5813,-4.5973,-4.5972,-4.5972,-4.5971,-4.5971,0,-4.6274,-4.6251,-4.6255,-4.6237,-4.6241,-4.6188,-4.6171,-4.6177,-4.619,-4.6171,-4.617,-4.6178,-4.6181,-4.614,-4.6138,-4.6154,-4.6129,-4.6156,-4.6153,-4.6149,-4.601,-4.5998,-4.6176,-4.6176,-4.6176,-4.6176,-4.6176,-4.6176,-4.6365,-4.6399,-4.6368,-4.6393,-4.6369,-4.6381,-4.6376,-4.6365,-4.635,-4.6361,-4.6363,-4.6336,-4.6308,-4.6303,-4.6304,-4.6292,-4.6294,-4.6329,-4.6308,-4.6179,-4.6159,-4.614,-4.6128,-4.633,-4.633,-4.6445,-4.6447,-4.6447]},{"header":{"parameterUnit":"m.s-1","parameterCategory":1,"la1":30.2991,"la2":30.254,"lo1":-89.0895,"lo2":-89.0444,"dy":0.0017,"dx":0.0017,"nx":28,"ny":28,"refTime":"2025-03-27T09:00:00:Z","depth":0,"parameterNumber":3,"parameterNumberName":"V-component_of_WINDS"},"data":[0,0,0,0,0,0,0,0,0,0,0,0,0,0,0,0,0,0,0,0,0,0,0,0,0,0,0,0,0,0,0,0,0,0,0,0,0,0,0,0,0,0,0,0,0,0,0,0,0,0,0,0,0,0,0,0,0,0,0.3496,0.3496,0,0.352,0.352,0.3521,0.3516,0.3516,0.3515,0.3515,0.354,0.3541,0.3542,0,0,0,0,0,0,0,0,0,0,0,0,0,0.3448,0.3449,0.3496,0.3496,0.3497,0.352,0.352,0.3521,0.3516,0.3516,0.3515,0.3515,0.3539,0.3541,0.3542,0,0,0,0,0,0,0,0,0,0,0,0,0,0.347,0.3449,0.3496,0.3497,0.3498,0.352,0.352,0.3521,0.3517,0.3516,0.3515,0.3515,0.3539,0.354,0.3542,0.3565,0,0,0.3547,0.3548,0,0,0,0,0,0,0,0,0.3469,0.3472,0.3497,0.3497,0.3498,0.3515,0.3512,0.3536,0.3517,0.3509,0.3515,0.3514,0.3532,0.3534,0.354,0.3566,0.3567,0.3547,0.3548,0.3549,0.3549,0,0,0,0,0,0,0,0.3467,0.3471,0.3506,0.3497,0.3498,0.3497,0.35,0.3517,0.3524,0.351,0.351,0.3513,0.3532,0.3538,0.354,0.3567,0.3547,0.3548,0.3549,0.355,0.3615,0.3616,0,0,0,0,0,0,0.3465,0.3469,0.3505,0.3506,0.3481,0.3499,0.3501,0.351,0.3524,0.3525,0.3513,0.3512,0.3536,0.3539,0.3541,0.357,0.3549,0.355,0.3551,0.3615,0.3616,0.3616,0,0,0,0,0,0,0.3464,0.3468,0.3504,0.3488,0.3492,0.35,0.351,0.3511,0.3517,0.3526,0.3527,0.3518,0.3536,0.3539,0.3559,0.3571,0.3551,0.3552,0.3614,0.3615,0.3616,0.3627,0,0,0,0,0,0,0.3463,0.3468,0.3476,0.3488,0.3493,0.3521,0.351,0.3512,0.352,0.3519,0.3531,0.3533,0.3535,0.3557,0.3561,0.3573,0.3553,0.3613,0.3614,0.3616,0.3626,0.3629,0.3631,0,0,0,0,0,0.3461,0.3478,0.3476,0.3481,0.3503,0.3522,0.3525,0.3527,0.3521,0.3529,0.3536,0.3532,0.3569,0.3559,0.3564,0.3576,0.3612,0.3614,0.3616,0.3625,0.3628,0.3631,0,0,0,0,0,0,0.3466,0.3479,0.3478,0.3499,0.3509,0.3521,0.3532,0.3531,0.3543,0.3542,0.3544,0.3547,0.3568,0.3574,0.3563,0.36,0.359,0.3592,0.3595,0.3599,0.3601,0.36,0.3555,0,0,0,0,0,0.347,0.3483,0.3494,0.3512,0.3517,0.3524,0.3532,0.3533,0.3544,0.3548,0.3556,0.3567,0.3581,0.359,0.3603,0.3627,0.3631,0.3638,0.364,0.3643,0.3645,0.366,0.3664,0.3622,0.3622,0.3622,0,0,0.3477,0.3486,0.3494,0.3513,0.3521,0.3536,0.3527,0.3542,0.3554,0.355,0.3571,0.3577,0.3589,0.3612,0.3622,0.3617,0.3658,0.3645,0.3646,0.3648,0.3662,0.3666,0.367,0.3623,0.3623,0.3623,0,0,0.3499,0.3506,0.3523,0.3532,0.3545,0.3549,0.3553,0.3566,0.357,0.359,0.3589,0.3602,0.3626,0.3636,0.3644,0.3672,0.367,0.3676,0.3689,0.3704,0.3707,0.371,0.3722,0.3726,0.3678,0.3678,0.3678,0,0.3507,0.3528,0.3531,0.3548,0.3557,0.3555,0.3573,0.3581,0.3598,0.3604,0.3599,0.363,0.3638,0.3664,0.3671,0.3677,0.3683,0.3674,0.3707,0.371,0.3712,0.3723,0.3728,0.3679,0.3679,0.3679,0.3679,0,0.3538,0.3554,0.3565,0.3582,0.3593,0.3609,0.3616,0.3626,0.3627,0.3633,0.3655,0.3665,0.3681,0.3687,0.3688,0.3714,0.3711,0.3706,0.3696,0.3717,0.3728,0.3732,0.368,0.368,0.368,0.3679,0,0,0.3563,0.3583,0.3587,0.3596,0.3611,0.3623,0.364,0.3657,0.3666,0.3678,0.3694,0.3715,0.3712,0.3721,0.3723,0.3736,0.3759,0.373,0.373,0.3736,0.3791,0.3795,0.38,0.3758,0.3759,0.376,0.379,0,0.3587,0.3617,0.3622,0.3649,0.3664,0.3664,0.368,0.3691,0.3697,0.3712,0.3719,0.3734,0.3727,0.3733,0.3746,0.3754,0.3771,0.3751,0.3774,0.3774,0.3771,0.3805,0.3809,0.3837,0.3794,0.3795,0.3795,0,0.3618,0.3632,0.3661,0.3677,0.3683,0.3697,0.3714,0.3727,0.3741,0.3745,0.3756,0.3757,0.3776,0.3766,0.3793,0.378,0.379,0.3795,0.3796,0.3799,0.3786,0.3809,0.3846,0.385,0.3801,0.3801,0.38,0,0.3635,0.3661,0.3682,0.369,0.3707,0.3717,0.3725,0.3738,0.3749,0.3764,0.3771,0.3787,0.3797,0.381,0.3816,0.3807,0.3844,0.3833,0.3849,0.3849,0.3856,0.3856,0.3896,0.3861,0.3861,0.3861,0.3861,0,0.3661,0.368,0.369,0.3704,0.3725,0.373,0.3751,0.3759,0.3771,0.3786,0.3787,0.3802,0.3808,0.3824,0.3829,0.3852,0.3856,0.3861,0.3862,0.3861,0.3861,0.3867,0.3866,0.3862,0.3862,0.3862,0.3861,0,0.3683,0.3691,0.3715,0.373,0.3735,0.375,0.3764,0.3777,0.3784,0.3804,0.3809,0.3819,0.3838,0.3846,0.3869,0.3872,0.3899,0.3899,0.3895,0.3895,0.3911,0.391,0.3958,0.3965,0.3924,0.3925,0.3925,0,0.37,0.3714,0.3732,0.3743,0.3751,0.3768,0.3779,0.3786,0.3797,0.3816,0.3827,0.3847,0.3862,0.3893,0.3903,0.3922,0.3922,0.3937,0.3924,0.3924,0.3924,0.3923,0.3925,0.394,0.394,0.394,0.3941,0,0.373,0.3733,0.3749,0.3767,0.3781,0.3795,0.3809,0.3818,0.3827,0.384,0.386,0.3872,0.3897,0.3917,0.3936,0.3945,0.3945,0.3945,0.395,0.3949,0.3947,0.395,0.3902,0.3944,0.3943,0.3943,0.3943,0.3943,0.375,0.3764,0.3779,0.3798,0.3809,0.3823,0.3837,0.3846,0.3863,0.3884,0.3886,0.3908,0.3924,0.395,0.396,0.3977,0.3973,0.398,0.3982,0.3984,0.3985,0.3944,0.3981,0.3981,0.3981,0.3981,0.3981,0,0.3781,0.3791,0.3808,0.3829,0.3844,0.3843,0.3859,0.3872,0.3891,0.3905,0.3921,0.3945,0.3965,0.3978,0.3998,0.401,0.401,0.4015,0.4014,0.4017,0.3987,0.3982,0.4014,0.4014,0.4014,0.4014,0.4014,0.4014,0.3799,0.3822,0.3828,0.3858,0.3868,0.389,0.39,0.3913,0.3925,0.3951,0.3968,0.3976,0.3991,0.4012,0.4031,0.4034,0.4042,0.4047,0.405,0.4022,0.4019,0.4015,0.401,0.4048,0.4048,0.4078,0.4078,0.4079]}]]